Bellingham, WA

6:55 AM PDT on September 19, 2017 (GMT -0700)
Bellingham International

Weather History for KBLI - September, 2012

Change the Weather History Date:

Monday, September 10, 2012

  Actual Average Record
Temperature  
Mean Temperature 56 °F 59 °F  
Max Temperature 64 °F 68 °F 81 °F (1989)
Min Temperature 48 °F 49 °F 40 °F (1959)
Degree Days  
Heating Degree Days 9 6  
Month to date heating degree days 53  
Cooling Degree Days 0 0  
Month to date cooling degree days 0  
Year to date cooling degree days 40  
Growing Degree Days 6 (Base 50)    
Moisture  
Dew Point 48 °F    
Average Humidity 75    
Maximum Humidity 96    
Minimum Humidity 45    
Precipitation  
Precipitation 0.00 in 0.06 in 0.95 in (1983)
Month to date precipitation 0.55  
Year to date precipitation 20.90  
Sea Level Pressure  
Sea Level Pressure 30.08 in    
Wind  
Wind Speed 6 mph (South)    
Max Wind Speed 12 mph    
Max Gust Speed 22 mph    
Visibility 9 miles    
Events Rain    
T = Trace of Precipitation, MM = Missing Value Source: NWS Daily Summary

Daily Weather History Graph

Daily Weather History Graph

Search for Another Location

Airport or City:

Trip Planner

Search our weather history database for the weather conditions in past years. The results will help you decide how hot, cold, wet, or windy it might be!

Date:

Astronomy

Sep. 10, 2012 Rise Set
Actual Time 6:40 AM PDT 7:32 PM PDT
Civil Twilight 6:08 AM PDT 8:04 PM PDT
Nautical Twilight 5:30 AM PDT 8:42 PM PDT
Astronomical Twilight 4:49 AM PDT 9:22 PM PDT
Moon 12:44 AM PDT (9/10) 4:25 PM PDT (9/10)
Length of Visible Light 13h 55m
Length of Day
12h 51m
Waning Crescent, 29% of the Moon is Illuminated
Sep 10
Waning Crescent
Sep 15
New
Sep 22
First Quarter
Sep 29
Full
Oct 8
Last Quarter

Hourly Weather History & Observations

Time (PDT) Temp. Dew Point Humidity Pressure Visibility Wind Dir Wind Speed Gust Speed Precip Events Conditions
12:20 AM 59.0 °F 55.4 °F 88% 29.90 in 8.0 mi South 6.9 mph 21.9 mph 0.00 in Rain Light Rain
12:44 AM 57.2 °F 55.4 °F 94% 29.90 in 3.0 mi South 4.6 mph - 0.00 in Rain Light Rain
12:53 AM 57.0 °F 55.9 °F 96% 29.93 in 4.0 mi South 8.1 mph - 0.00 in Rain Rain
1:06 AM 57.2 °F 55.4 °F 94% 29.91 in 5.0 mi Variable 5.8 mph - 0.00 in Rain Light Rain
1:23 AM 57.2 °F 55.4 °F 94% 29.91 in 9.0 mi South 8.1 mph - N/A Rain Light Rain
1:53 AM 55.9 °F 54.0 °F 93% 29.94 in 10.0 mi South 8.1 mph - 0.00 in Rain Light Rain
2:53 AM 55.0 °F 51.1 °F 86% 29.98 in 10.0 mi WSW 5.8 mph - 0.00 in   Mostly Cloudy
3:53 AM 52.0 °F 46.9 °F 83% 30.01 in 10.0 mi Variable 3.5 mph - N/A   Clear
4:53 AM 53.1 °F 44.1 °F 71% 30.03 in 10.0 mi SSW 3.5 mph - N/A   Scattered Clouds
5:53 AM 48.9 °F 45.0 °F 86% 30.04 in 10.0 mi South 3.5 mph - N/A   Mostly Cloudy
6:53 AM 52.0 °F 46.9 °F 83% 30.06 in 10.0 mi SSE 5.8 mph - N/A   Clear
7:53 AM 51.1 °F 46.9 °F 86% 30.09 in 10.0 mi SSE 3.5 mph - N/A   Mostly Cloudy
8:53 AM 55.0 °F 48.9 °F 80% 30.11 in 10.0 mi SSE 6.9 mph - N/A   Overcast
9:53 AM 57.0 °F 48.9 °F 74% 30.12 in 10.0 mi South 9.2 mph - N/A   Partly Cloudy
10:53 AM 57.9 °F 48.9 °F 72% 30.14 in 10.0 mi SSE 10.4 mph 16.1 mph N/A   Partly Cloudy
11:53 AM 60.8 °F 48.2 °F 63% 30.12 in 10.0 mi South 10.4 mph 16.1 mph N/A   Partly Cloudy
12:53 PM 63.0 °F 48.0 °F 58% 30.14 in 10.0 mi South 9.2 mph - N/A   Mostly Cloudy
1:53 PM 62.1 °F 46.0 °F 56% 30.14 in 10.0 mi SSE 11.5 mph - N/A   Scattered Clouds
2:53 PM 63.0 °F 46.0 °F 54% 30.15 in 10.0 mi SSE 10.4 mph - N/A   Clear
3:53 PM 64.0 °F 44.1 °F 48% 30.14 in 10.0 mi South 10.4 mph - N/A   Partly Cloudy
4:53 PM 64.0 °F 43.0 °F 46% 30.14 in 10.0 mi South 5.8 mph - N/A   Partly Cloudy
5:53 PM 63.0 °F 41.0 °F 45% 30.15 in 10.0 mi Variable 3.5 mph - N/A   Clear
6:53 PM 60.1 °F 44.1 °F 55% 30.16 in 10.0 mi Calm Calm - N/A   Clear
7:53 PM 54.0 °F 46.0 °F 75% 30.17 in 10.0 mi Calm Calm - N/A   Clear
8:53 PM 53.1 °F 46.0 °F 77% 30.19 in 10.0 mi Calm Calm - N/A   Scattered Clouds
9:53 PM 51.1 °F 45.0 °F 80% 30.21 in 10.0 mi Calm Calm - N/A   Scattered Clouds
10:53 PM 53.1 °F 46.9 °F 80% 30.22 in 10.0 mi South 3.5 mph - N/A   Mostly Cloudy
11:53 PM 52.0 °F 45.0 °F 77% 30.23 in 10.0 mi South 3.5 mph - N/A   Clear